TimeAKDT,TemperatureF,Dew PointF,Humidity,Sea Level PressureIn,VisibilityMPH,Wind Direction,Wind SpeedMPH,Gust SpeedMPH,PrecipitationIn,Events,Conditions,WindDirDegrees,DateUTC
12:15 AM,53.6,51.8,94,30.02,0.8,Calm,Calm,-,0.02,Rain,Light Rain,0,2013-08-12 08:15:00
12:30 AM,51.8,51.8,100,30.02,0.8,Calm,Calm,-,0.05,Rain,Light Rain,0,2013-08-12 08:30:00
12:49 AM,53.6,53.6,100,30.02,0.8,Calm,Calm,-,0.08,Rain,Light Rain,0,2013-08-12 08:49:00
12:53 AM,54.0,53.1,97,30.03,1.0,Calm,Calm,-,0.08,Rain,Light Rain,0,2013-08-12 08:53:00
12:58 AM,53.6,53.6,100,30.02,2.0,Calm,Calm,-,0.00,Rain,Light Rain,0,2013-08-12 08:58:00
1:13 AM,53.6,53.6,100,30.03,1.2,Calm,Calm,-,0.01,Rain,Light Rain,0,2013-08-12 09:13:00
1:15 AM,53.6,53.6,100,30.03,1.0,Calm,Calm,-,0.01,Rain,Light Rain,0,2013-08-12 09:15:00
1:22 AM,53.6,53.6,100,30.03,0.8,Calm,Calm,-,0.01,Rain,Light Rain,0,2013-08-12 09:22:00
1:30 AM,53.6,51.8,94,30.03,1.0,Calm,Calm,-,0.02,Rain,Light Rain,0,2013-08-12 09:30:00
1:36 AM,53.6,51.8,94,30.03,0.8,Calm,Calm,-,0.02,Rain,Light Rain,0,2013-08-12 09:36:00
1:53 AM,52.0,52.0,100,30.03,0.8,Calm,Calm,-,0.03,Rain,Light Rain,0,2013-08-12 09:53:00
2:10 AM,53.6,51.8,94,30.03,0.8,Calm,Calm,-,0.00,,Mist,0,2013-08-12 10:10:00
2:53 AM,52.0,51.1,97,30.03,0.5,Calm,Calm,-,0.02,Fog-Rain,Light Rain,0,2013-08-12 10:53:00
3:06 AM,51.8,51.8,100,30.03,1.2,Calm,Calm,-,0.00,Rain,Light Rain,0,2013-08-12 11:06:00
3:28 AM,51.8,51.8,100,30.02,0.8,Calm,Calm,-,0.01,Rain,Light Rain,0,2013-08-12 11:28:00
3:36 AM,51.8,51.8,100,30.02,0.8,Calm,Calm,-,0.01,Rain,Light Rain,0,2013-08-12 11:36:00
3:53 AM,51.1,51.1,100,30.02,0.5,Calm,Calm,-,0.01,Fog,Fog,0,2013-08-12 11:53:00
4:13 AM,51.8,51.8,100,30.02,0.5,Calm,Calm,-,N/A,Fog,Fog,0,2013-08-12 12:13:00
4:53 AM,52.0,51.1,97,30.03,0.5,Calm,Calm,-,0.00,Fog,Fog,0,2013-08-12 12:53:00
5:53 AM,53.1,53.1,100,30.02,0.8,Calm,Calm,-,0.01,,Overcast,0,2013-08-12 13:53:00
6:04 AM,53.6,53.6,100,30.02,0.8,Calm,Calm,-,0.00,Rain,Light Rain,0,2013-08-12 14:04:00
6:10 AM,53.6,53.6,100,30.02,1.2,Calm,Calm,-,0.00,Rain,Light Rain,0,2013-08-12 14:10:00
6:25 AM,51.8,51.8,100,30.03,0.8,Calm,Calm,-,0.00,,Overcast,0,2013-08-12 14:25:00
6:53 AM,51.1,51.1,100,30.03,0.2,Calm,Calm,-,0.00,Fog,Fog,0,2013-08-12 14:53:00
7:03 AM,51.8,51.8,100,30.03,1.5,Calm,Calm,-,N/A,,Overcast,0,2013-08-12 15:03:00
7:06 AM,53.6,51.8,94,30.03,3.0,Calm,Calm,-,N/A,,Overcast,0,2013-08-12 15:06:00
7:10 AM,51.8,51.8,100,30.03,1.5,Calm,Calm,-,N/A,,Overcast,0,2013-08-12 15:10:00
7:14 AM,51.8,51.8,100,30.03,0.8,Calm,Calm,-,N/A,,Overcast,0,2013-08-12 15:14:00
7:20 AM,53.6,51.8,94,30.03,1.2,Calm,Calm,-,N/A,,Overcast,0,2013-08-12 15:20:00
7:23 AM,53.6,53.6,100,30.03,4.0,Calm,Calm,-,N/A,,Overcast,0,2013-08-12 15:23:00
7:46 AM,51.8,51.8,100,30.03,1.2,Calm,Calm,-,N/A,,Overcast,0,2013-08-12 15:46:00
7:48 AM,51.8,51.8,100,30.03,0.8,Calm,Calm,-,N/A,,Overcast,0,2013-08-12 15:48:00
7:53 AM,53.1,52.0,96,30.04,0.8,Calm,Calm,-,N/A,,Overcast,0,2013-08-12 15:53:00
7:57 AM,53.6,51.8,94,30.03,1.5,Calm,Calm,-,N/A,,Overcast,0,2013-08-12 15:57:00
7:59 AM,53.6,51.8,94,30.03,3.0,Calm,Calm,-,N/A,,Overcast,0,2013-08-12 15:59:00
8:49 AM,53.6,53.6,100,30.04,3.0,Calm,Calm,-,N/A,,Overcast,0,2013-08-12 16:49:00
8:53 AM,54.0,53.1,97,30.04,5.0,Calm,Calm,-,N/A,,Overcast,0,2013-08-12 16:53:00
9:53 AM,55.0,54.0,96,30.04,10.0,Calm,Calm,-,N/A,,Overcast,0,2013-08-12 17:53:00
10:13 AM,53.6,53.6,100,30.04,1.8,Calm,Calm,-,N/A,,Overcast,0,2013-08-12 18:13:00
10:18 AM,53.6,53.6,100,30.05,0.8,SSW,3.5,-,N/A,,Overcast,210,2013-08-12 18:18:00
10:40 AM,53.6,53.6,100,30.05,1.2,Calm,Calm,-,N/A,,Overcast,0,2013-08-12 18:40:00
10:49 AM,53.6,53.6,100,30.05,3.0,Calm,Calm,-,N/A,,Overcast,0,2013-08-12 18:49:00
10:50 AM,54.0,54.0,100,30.05,4.0,Calm,Calm,-,N/A,,Overcast,0,2013-08-12 18:50:00
11:53 AM,55.9,54.0,93,30.06,10.0,Calm,Calm,-,N/A,,Overcast,0,2013-08-12 19:53:00
12:45 PM,57.2,55.4,94,30.06,10.0,Calm,Calm,-,N/A,,Overcast,0,2013-08-12 20:45:00
12:53 PM,57.9,55.0,90,30.06,10.0,Calm,Calm,-,N/A,,Overcast,0,2013-08-12 20:53:00
1:22 PM,57.2,55.4,94,30.06,10.0,Variable,3.5,-,N/A,,Overcast,0,2013-08-12 21:22:00
1:53 PM,57.9,55.0,90,30.07,10.0,SSE,3.5,-,N/A,,Overcast,150,2013-08-12 21:53:00
2:03 PM,57.2,55.4,94,30.07,10.0,SSW,3.5,-,N/A,,Overcast,200,2013-08-12 22:03:00
2:49 PM,59.0,53.6,82,30.07,10.0,Calm,Calm,-,N/A,,Overcast,0,2013-08-12 22:49:00
2:53 PM,59.0,54.0,83,30.07,10.0,Calm,Calm,-,N/A,,Overcast,0,2013-08-12 22:53:00
3:53 PM,57.9,54.0,87,30.06,10.0,SSE,3.5,-,N/A,,Overcast,160,2013-08-12 23:53:00
4:38 PM,59.0,53.6,82,30.06,10.0,SE,3.5,-,N/A,,Overcast,130,2013-08-13 00:38:00
4:53 PM,59.0,54.0,83,30.06,10.0,Variable,3.5,-,N/A,,Overcast,0,2013-08-13 00:53:00
5:53 PM,57.9,54.0,87,30.06,10.0,SE,3.5,-,N/A,,Mostly Cloudy,140,2013-08-13 01:53:00
6:37 PM,57.2,53.6,88,30.06,10.0,Calm,Calm,-,N/A,,Overcast,0,2013-08-13 02:37:00
6:53 PM,57.0,55.0,93,30.06,10.0,Calm,Calm,-,N/A,,Overcast,0,2013-08-13 02:53:00
7:53 PM,57.0,55.0,93,30.05,10.0,SSE,3.5,-,N/A,,Overcast,160,2013-08-13 03:53:00
8:51 PM,57.2,55.4,94,30.04,10.0,Calm,Calm,-,N/A,,Overcast,0,2013-08-13 04:51:00
8:53 PM,57.0,55.0,93,30.04,10.0,Calm,Calm,-,N/A,,Overcast,0,2013-08-13 04:53:00
9:53 PM,57.0,54.0,89,30.04,10.0,Calm,Calm,-,N/A,,Overcast,0,2013-08-13 05:53:00
10:38 PM,53.6,51.8,94,30.05,1.8,Calm,Calm,-,N/A,,Partly Cloudy,0,2013-08-13 06:38:00
10:42 PM,51.8,51.8,100,30.05,0.8,Calm,Calm,-,N/A,,Partly Cloudy,0,2013-08-13 06:42:00
10:51 PM,53.6,51.8,94,30.05,1.2,Calm,Calm,-,N/A,,Mostly Cloudy,0,2013-08-13 06:51:00
10:53 PM,53.1,52.0,96,30.05,1.5,Calm,Calm,-,N/A,,Mostly Cloudy,0,2013-08-13 06:53:00
10:55 PM,53.6,51.8,94,30.05,4.0,Calm,Calm,-,N/A,,Mostly Cloudy,0,2013-08-13 06:55:00
11:10 PM,53.6,53.6,100,30.05,9.0,Calm,Calm,-,N/A,,Mostly Cloudy,0,2013-08-13 07:10:00
11:20 PM,53.6,51.8,94,30.05,3.0,Calm,Calm,-,N/A,,Mostly Cloudy,0,2013-08-13 07:20:00
11:23 PM,53.6,51.8,94,30.05,1.5,Calm,Calm,-,N/A,,Mostly Cloudy,0,2013-08-13 07:23:00
11:30 PM,51.8,51.8,100,30.05,0.8,Calm,Calm,-,N/A,,Mostly Cloudy,0,2013-08-13 07:30:00
11:39 PM,53.6,51.8,94,30.05,0.5,Calm,Calm,-,N/A,Fog,Fog,0,2013-08-13 07:39:00
11:43 PM,51.8,51.8,100,30.05,1.2,Calm,Calm,-,N/A,,Overcast,0,2013-08-13 07:43:00
11:47 PM,50.0,50.0,100,30.05,0.8,Calm,Calm,-,N/A,,Overcast,0,2013-08-13 07:47:00
11:53 PM,52.0,51.1,97,30.05,0.5,Calm,Calm,-,N/A,Fog,Fog,0,2013-08-13 07:53:00